Location: Rancho Del Sol Observatory
(38.7214°N, 120.6350°W)
Time: 10:13:29
(UTC-08:00)

Starlink Launch 2 trailer - Visible Passes

Search period start: 05 December 2019 00:00
Search period end: 15 December 2019 00:00
Orbit: 279 x 281 km, 53.0° (Epoch: 13 November)

Date Brightness Start Highest point End Pass type
(mag) Time Alt. Az. Time Alt. Az. Time Alt. Az.
05 Dec 5.2 06:18:15 10° NNE 06:18:28 10° NNE 06:18:43 10° NNE visible
06 Dec 4.7 06:18:57 10° NNW 06:20:35 16° NNE 06:22:14 10° ENE visible
07 Dec 3.9 06:20:28 10° NNW 06:22:39 27° NE 06:24:49 10° E visible
08 Dec 2.5 06:22:25 12° NW 06:24:37 61° NE 06:27:02 10° ESE visible
09 Dec 2.6 06:24:31 13° WNW 06:26:32 50° SW 06:28:55 10° SSE visible
10 Dec 6.0 04:56:34 11° E 04:56:34 11° E 04:56:41 10° E visible
10 Dec 3.9 06:26:42 12° W 06:28:22 21° SW 06:30:19 10° S visible
11 Dec 5.9 04:58:49 12° ESE 04:58:49 12° ESE 04:59:06 10° ESE visible
12 Dec 5.9 05:01:09 10° SE 05:01:09 10° SE 05:01:11 10° SE visible
